HJS-7A (65617 NORAD) Tracking and Keplerian Element Data

This shows tracking and keplerian element data for the satellite.

Feedback or suggestion? Click here.




ElementValue
Catalog65617
NameHJS-7A
Epoch Orbit1346
Epoch Day354.28984382
Epoch Year2025
RAAN305.8977
Inclination50
Eccentricity0.0001982
Argument of Perigee184.447
Mean Anonmoly175.6418
Mean Motion14.04244929
Decay Rate6.6E-07
L11 65617U 25209A 25354.28984382 .00000066 00000+0 13632-3 0 9995
L22 65617 50.0000 305.8977 0001982 184.4470 175.6418 14.04244929 13464



Live tracking and technical data element details for HJS-7A (NORAD 65617). HJS-7A can be tracked NOW for your location showing map with azimuth and elevation plus other details from your city location.







IsCatalogInMostPopularTable: catalog: 65617, numindb: 5
Update: records affected: 1



GetName: 65617 HJS-7A

Hit Count: updated at: Mon, 20 Apr 2026 10:07:45 GMT